date,time,SUV Intensity [MED/Hr],UV Index,Daily total [MED],Since Last [MED]
22/04/2023,00:00:53,0.000,0.0,0.0,0.0
22/04/2023,00:01:53,0.000,0.0,0.0,0.0
22/04/2023,00:02:54,-0.000,0.0,0.0,0.0
22/04/2023,00:03:53,0.000,0.0,0.0,0.0
22/04/2023,00:04:54,0.001,0.0,0.0,0.0
22/04/2023,00:05:53,0.000,0.0,0.0,0.0
22/04/2023,00:06:53,0.000,0.0,0.0,0.0
22/04/2023,00:07:53,0.000,0.0,0.0,0.0
22/04/2023,00:08:54,0.000,0.0,0.0,0.0
22/04/2023,00:09:54,0.000,0.0,0.0,0.0
22/04/2023,00:10:54,0.000,0.0,0.0,0.0
22/04/2023,00:11:54,0.000,0.0,0.0,0.0
22/04/2023,00:12:53,0.000,0.0,0.0,0.0
22/04/2023,00:13:53,0.000,0.0,0.0,0.0
22/04/2023,00:14:54,-0.000,0.0,0.0,0.0
22/04/2023,00:15:54,-0.000,0.0,0.0,0.0
22/04/2023,00:16:53,0.001,0.0,0.0,0.0
22/04/2023,00:17:54,0.000,0.0,0.0,0.0
22/04/2023,00:18:53,0.000,0.0,0.0,0.0
22/04/2023,00:19:53,0.000,0.0,0.0,0.0
22/04/2023,00:20:53,0.001,0.0,0.0,0.0
22/04/2023,00:21:53,0.000,0.0,0.0,0.0
22/04/2023,00:22:53,0.000,0.0,0.0,0.0
22/04/2023,00:23:54,0.001,0.0,0.0,0.0
22/04/2023,00:24:54,0.000,0.0,0.0,0.0
22/04/2023,00:25:53,0.000,0.0,0.0,0.0
22/04/2023,00:26:54,0.000,0.0,0.0,0.0
22/04/2023,00:27:54,-0.000,0.0,0.0,0.0
22/04/2023,00:28:54,0.000,0.0,0.0,0.0
22/04/2023,00:29:54,-0.000,0.0,0.0,0.0
22/04/2023,00:30:55,0.000,0.0,0.0,0.0
22/04/2023,00:31:54,-0.000,0.0,0.0,0.0
22/04/2023,00:32:53,0.000,0.0,0.0,0.0
22/04/2023,00:33:53,-0.000,0.0,0.0,0.0
22/04/2023,00:34:53,-0.000,0.0,0.0,0.0
22/04/2023,00:35:54,0.001,0.0,0.0,0.0
22/04/2023,00:36:53,-0.000,0.0,0.0,0.0
22/04/2023,00:37:53,0.001,0.0,0.0,0.0
22/04/2023,00:38:53,0.000,0.0,0.0,0.0
22/04/2023,00:39:54,0.001,0.0,0.0,0.0
22/04/2023,00:40:54,0.000,0.0,0.0,0.0
22/04/2023,00:41:53,0.000,0.0,0.0,0.0
22/04/2023,00:42:54,-0.000,0.0,0.0,0.0
22/04/2023,00:43:54,0.000,0.0,0.0,0.0
22/04/2023,00:44:54,0.000,0.0,0.0,0.0
22/04/2023,00:45:54,0.000,0.0,0.0,0.0
22/04/2023,00:46:54,0.000,0.0,0.0,0.0
22/04/2023,00:47:54,0.001,0.0,0.0,0.0
22/04/2023,00:48:54,0.000,0.0,0.0,0.0
22/04/2023,00:49:53,0.000,0.0,0.0,0.0
22/04/2023,00:50:53,0.000,0.0,0.0,0.0
22/04/2023,00:51:53,0.000,0.0,0.0,0.0
22/04/2023,00:52:54,0.000,0.0,0.0,0.0
22/04/2023,00:53:53,0.000,0.0,0.0,0.0
22/04/2023,00:54:54,0.001,0.0,0.0,0.0
22/04/2023,00:55:54,-0.000,0.0,0.0,0.0
22/04/2023,00:56:54,0.000,0.0,0.0,0.0
22/04/2023,00:57:54,0.000,0.0,0.0,0.0
22/04/2023,00:58:53,0.000,0.0,0.0,0.0
22/04/2023,00:59:53,0.000,0.0,0.0,0.0
22/04/2023,01:00:54,0.000,0.0,0.0,0.0
22/04/2023,01:01:53,-0.000,0.0,0.0,0.0
22/04/2023,01:02:54,0.000,0.0,0.0,0.0
22/04/2023,01:03:54,-0.000,0.0,0.0,0.0
22/04/2023,01:04:54,0.000,0.0,0.0,0.0
22/04/2023,01:05:54,0.001,0.0,0.0,0.0
22/04/2023,01:06:54,0.000,0.0,0.0,0.0
22/04/2023,01:07:54,0.000,0.0,0.0,0.0
22/04/2023,01:08:54,0.000,0.0,0.0,0.0
22/04/2023,01:09:54,0.001,0.0,0.0,0.0
22/04/2023,01:10:54,0.001,0.0,0.0,0.0
22/04/2023,01:11:54,-0.000,0.0,0.0,0.0
22/04/2023,01:12:53,-0.000,0.0,0.0,0.0
22/04/2023,01:13:53,-0.000,0.0,0.0,0.0
22/04/2023,01:14:53,0.001,0.0,0.0,0.0
22/04/2023,01:15:54,0.001,0.0,0.0,0.0
22/04/2023,01:16:54,-0.000,0.0,0.0,0.0
22/04/2023,01:17:53,0.000,0.0,0.0,0.0
22/04/2023,01:18:54,0.001,0.0,0.0,0.0
22/04/2023,01:19:54,0.001,0.0,0.0,0.0
22/04/2023,01:20:54,0.000,0.0,0.0,0.0
22/04/2023,01:21:54,0.000,0.0,0.0,0.0
22/04/2023,01:22:54,0.000,0.0,0.0,0.0
22/04/2023,01:23:54,0.000,0.0,0.0,0.0
22/04/2023,01:24:54,-0.000,0.0,0.0,0.0
22/04/2023,01:25:54,0.001,0.0,0.0,0.0
22/04/2023,01:26:54,0.000,0.0,0.0,0.0
22/04/2023,01:27:53,0.000,0.0,0.0,0.0
22/04/2023,01:28:54,-0.000,0.0,0.0,0.0
22/04/2023,01:29:53,-0.001,0.0,0.0,0.0
22/04/2023,01:30:54,0.000,0.0,0.0,0.0
22/04/2023,01:31:54,0.000,0.0,0.0,0.0
22/04/2023,01:32:54,0.000,0.0,0.0,0.0
22/04/2023,01:33:54,-0.000,0.0,0.0,0.0
22/04/2023,01:34:54,0.000,0.0,0.0,0.0
22/04/2023,01:35:53,0.000,0.0,0.0,0.0
22/04/2023,01:36:54,0.000,0.0,0.0,0.0
22/04/2023,01:37:53,0.000,0.0,0.0,0.0
22/04/2023,01:38:54,0.000,0.0,0.0,0.0
22/04/2023,01:39:54,0.001,0.0,0.0,0.0
22/04/2023,01:40:54,0.001,0.0,0.0,0.0
22/04/2023,01:41:54,0.001,0.0,0.0,0.0
22/04/2023,01:42:54,0.000,0.0,0.0,0.0
22/04/2023,01:43:53,0.000,0.0,0.0,0.0
22/04/2023,01:44:54,0.001,0.0,0.0,0.0
22/04/2023,01:45:54,0.000,0.0,0.0,0.0
22/04/2023,01:46:53,0.001,0.0,0.0,0.0
22/04/2023,01:47:53,0.000,0.0,0.0,0.0
22/04/2023,01:48:53,0.000,0.0,0.0,0.0
22/04/2023,01:49:54,0.000,0.0,0.0,0.0
22/04/2023,01:50:54,0.000,0.0,0.0,0.0
22/04/2023,01:51:53,0.000,0.0,0.0,0.0
22/04/2023,01:52:53,-0.000,0.0,0.0,0.0
22/04/2023,01:53:54,0.000,0.0,0.0,0.0
22/04/2023,01:54:53,0.000,0.0,0.0,0.0
22/04/2023,01:55:55,0.000,0.0,0.0,0.0
22/04/2023,01:56:55,0.000,0.0,0.0,0.0
22/04/2023,01:57:53,0.002,0.0,0.0,0.0
22/04/2023,01:58:54,0.000,0.0,0.0,0.0
22/04/2023,01:59:54,0.000,0.0,0.0,0.0
22/04/2023,02:00:53,0.000,0.0,0.0,0.0
22/04/2023,02:01:54,-0.000,0.0,0.0,0.0
22/04/2023,02:02:54,0.001,0.0,0.0,0.0
22/04/2023,02:03:54,0.001,0.0,0.0,0.0
22/04/2023,02:04:53,-0.000,0.0,0.0,0.0
22/04/2023,02:05:54,0.000,0.0,0.0,0.0
22/04/2023,02:06:53,0.001,0.0,0.0,0.0
22/04/2023,02:07:54,0.001,0.0,0.0,0.0
22/04/2023,02:08:54,0.001,0.0,0.0,0.0
22/04/2023,02:09:54,0.001,0.0,0.0,0.0
22/04/2023,02:10:53,0.001,0.0,0.0,0.0
22/04/2023,02:11:53,0.001,0.0,0.0,0.0
22/04/2023,02:12:54,0.001,0.0,0.0,0.0
22/04/2023,02:13:54,0.000,0.0,0.0,0.0
22/04/2023,02:14:54,0.001,0.0,0.0,0.0
22/04/2023,02:15:54,0.002,0.0,0.0,0.0
22/04/2023,02:16:54,0.001,0.0,0.0,0.0
22/04/2023,02:17:53,0.000,0.0,0.0,0.0
22/04/2023,02:18:54,-0.000,0.0,0.0,0.0
22/04/2023,02:19:54,0.000,0.0,0.0,0.0
22/04/2023,02:20:54,0.000,0.0,0.0,0.0
22/04/2023,02:21:54,-0.000,0.0,0.0,0.0
22/04/2023,02:22:54,0.001,0.0,0.0,0.0
22/04/2023,02:23:54,0.001,0.0,0.0,0.0
22/04/2023,02:24:54,0.000,0.0,0.0,0.0
22/04/2023,02:25:54,0.001,0.0,0.0,0.0
22/04/2023,02:26:54,-0.000,0.0,0.0,0.0
22/04/2023,02:27:54,0.001,0.0,0.0,0.0
22/04/2023,02:28:53,0.001,0.0,0.0,0.0
22/04/2023,02:29:53,0.000,0.0,0.0,0.0
22/04/2023,02:30:53,0.000,0.0,0.0,0.0
22/04/2023,02:31:54,0.001,0.0,0.0,0.0
22/04/2023,02:32:53,0.001,0.0,0.0,0.0
22/04/2023,02:33:54,0.001,0.0,0.0,0.0
22/04/2023,02:34:54,0.001,0.0,0.0,0.0
22/04/2023,02:35:54,0.001,0.0,0.0,0.0
22/04/2023,02:36:54,0.002,0.0,0.0,0.0
22/04/2023,02:37:54,0.000,0.0,0.0,0.0
22/04/2023,02:38:54,0.001,0.0,0.0,0.0
22/04/2023,02:39:54,0.001,0.0,0.0,0.0
22/04/2023,02:40:54,-0.000,0.0,0.0,0.0
22/04/2023,02:41:54,0.000,0.0,0.0,0.0
22/04/2023,02:42:54,0.001,0.0,0.0,0.0
22/04/2023,02:43:53,0.001,0.0,0.0,0.0
22/04/2023,02:44:54,0.002,0.0,0.0,0.0
22/04/2023,02:45:54,0.002,0.0,0.0,0.0
22/04/2023,02:46:54,0.001,0.0,0.0,0.0
22/04/2023,02:47:53,0.001,0.0,0.0,0.0
22/04/2023,02:48:54,0.000,0.0,0.0,0.0
22/04/2023,02:49:53,0.001,0.0,0.0,0.0
22/04/2023,02:50:54,0.000,0.0,0.0,0.0
22/04/2023,02:51:54,0.001,0.0,0.0,0.0
22/04/2023,02:52:54,0.001,0.0,0.0,0.0
22/04/2023,02:53:54,0.001,0.0,0.0,0.0
22/04/2023,02:54:53,0.001,0.0,0.0,0.0
22/04/2023,02:55:53,0.001,0.0,0.0,0.0
22/04/2023,02:56:54,0.001,0.0,0.0,0.0
22/04/2023,02:57:53,0.001,0.0,0.0,0.0
22/04/2023,02:58:54,0.001,0.0,0.0,0.0
22/04/2023,02:59:54,0.001,0.0,0.0,0.0
22/04/2023,03:00:53,0.001,0.0,0.0,0.0
22/04/2023,03:01:54,0.001,0.0,0.0,0.0
22/04/2023,03:02:54,0.002,0.0,0.0,0.0
22/04/2023,03:03:54,0.001,0.0,0.0,0.0
22/04/2023,03:04:54,0.001,0.0,0.0,0.0
22/04/2023,03:05:53,0.002,0.0,0.0,0.0
22/04/2023,03:06:54,0.001,0.0,0.0,0.0
22/04/2023,03:07:54,0.002,0.0,0.0,0.0
22/04/2023,03:08:54,0.001,0.0,0.0,0.0
22/04/2023,03:09:54,0.001,0.0,0.0,0.0
22/04/2023,03:10:54,0.001,0.0,0.0,0.0
22/04/2023,03:11:54,0.001,0.0,0.0,0.0
22/04/2023,03:12:53,0.001,0.0,0.0,0.0
22/04/2023,03:13:53,0.001,0.0,0.0,0.0
22/04/2023,03:14:53,0.001,0.0,0.0,0.0
22/04/2023,03:15:53,0.001,0.0,0.0,0.0
22/04/2023,03:16:53,0.001,0.0,0.0,0.0
22/04/2023,03:17:53,0.002,0.0,0.0,0.0
22/04/2023,03:18:54,0.000,0.0,0.0,0.0
22/04/2023,03:19:54,0.001,0.0,0.0,0.0
22/04/2023,03:20:54,0.002,0.0,0.0,0.0
22/04/2023,03:21:54,0.001,0.0,0.0,0.0
22/04/2023,03:22:53,0.000,0.0,0.0,0.0
22/04/2023,03:23:54,0.000,0.0,0.0,0.0
22/04/2023,03:24:54,0.000,0.0,0.0,0.0
22/04/2023,03:25:53,0.001,0.0,0.0,0.0
22/04/2023,03:26:54,-0.000,0.0,0.0,0.0
22/04/2023,03:27:54,0.001,0.0,0.0,0.0
22/04/2023,03:28:54,0.001,0.0,0.0,0.0
22/04/2023,03:29:54,0.001,0.0,0.0,0.0
22/04/2023,03:30:54,0.002,0.0,0.0,0.0
22/04/2023,03:31:54,0.001,0.0,0.0,0.0
22/04/2023,03:32:54,0.001,0.0,0.0,0.0
22/04/2023,03:33:54,0.000,0.0,0.0,0.0
22/04/2023,03:34:53,0.000,0.0,0.0,0.0
22/04/2023,03:35:54,0.001,0.0,0.0,0.0
22/04/2023,03:36:54,0.001,0.0,0.0,0.0
22/04/2023,03:37:54,0.000,0.0,0.0,0.0
22/04/2023,03:38:54,0.000,0.0,0.0,0.0
22/04/2023,03:39:54,0.001,0.0,0.0,0.0
22/04/2023,03:40:54,0.002,0.0,0.0,0.0
22/04/2023,03:41:54,0.001,0.0,0.0,0.0
22/04/2023,03:42:54,0.001,0.0,0.0,0.0
22/04/2023,03:43:54,0.001,0.0,0.0,0.0
22/04/2023,03:44:54,0.000,0.0,0.0,0.0
22/04/2023,03:45:54,0.000,0.0,0.0,0.0
22/04/2023,03:46:54,0.001,0.0,0.0,0.0
22/04/2023,03:47:54,0.001,0.0,0.0,0.0
22/04/2023,03:48:54,0.001,0.0,0.0,0.0
22/04/2023,03:49:54,0.001,0.0,0.0,0.0
22/04/2023,03:50:54,0.001,0.0,0.0,0.0
22/04/2023,03:51:54,-0.000,0.0,0.0,0.0
22/04/2023,03:52:54,0.001,0.0,0.0,0.0
22/04/2023,03:53:53,0.000,0.0,0.0,0.0
22/04/2023,03:54:54,0.001,0.0,0.0,0.0
22/04/2023,03:55:54,0.002,0.0,0.0,0.0
22/04/2023,03:56:54,0.001,0.0,0.0,0.0
22/04/2023,03:57:54,0.002,0.0,0.0,0.0
22/04/2023,03:58:54,0.002,0.0,0.0,0.0
22/04/2023,03:59:54,0.001,0.0,0.0,0.0
22/04/2023,04:00:54,0.000,0.0,0.0,0.0
22/04/2023,04:01:54,0.002,0.0,0.0,0.0
22/04/2023,04:02:54,0.001,0.0,0.0,0.0
22/04/2023,04:03:53,0.002,0.0,0.0,0.0
22/04/2023,04:04:53,0.001,0.0,0.0,0.0
22/04/2023,04:05:53,0.000,0.0,0.0,0.0
22/04/2023,04:06:53,0.001,0.0,0.0,0.0
22/04/2023,04:07:54,0.002,0.0,0.0,0.0
22/04/2023,04:08:54,0.001,0.0,0.0,0.0
22/04/2023,04:09:54,0.000,0.0,0.0,0.0
22/04/2023,04:10:54,0.002,0.0,0.0,0.0
22/04/2023,04:11:54,0.000,0.0,0.0,0.0
22/04/2023,04:12:54,0.001,0.0,0.0,0.0
22/04/2023,04:13:54,0.001,0.0,0.0,0.0
22/04/2023,04:14:54,0.001,0.0,0.0,0.0
22/04/2023,04:15:54,0.001,0.0,0.0,0.0
22/04/2023,04:16:54,0.001,0.0,0.0,0.0
22/04/2023,04:17:54,0.002,0.0,0.0,0.0
22/04/2023,04:18:54,0.001,0.0,0.0,0.0
22/04/2023,04:19:54,0.000,0.0,0.0,0.0
22/04/2023,04:20:53,0.001,0.0,0.0,0.0
22/04/2023,04:21:54,0.001,0.0,0.0,0.0
22/04/2023,04:22:54,0.001,0.0,0.0,0.0
22/04/2023,04:23:54,0.002,0.0,0.0,0.0
22/04/2023,04:24:54,0.001,0.0,0.0,0.0
22/04/2023,04:25:54,0.001,0.0,0.0,0.0
22/04/2023,04:26:54,0.000,0.0,0.0,0.0
22/04/2023,04:27:54,0.001,0.0,0.0,0.0
22/04/2023,04:28:54,0.001,0.0,0.0,0.0
22/04/2023,04:29:54,0.002,0.0,0.0,0.0
22/04/2023,04:30:54,0.001,0.0,0.0,0.0
22/04/2023,04:31:54,0.001,0.0,0.0,0.0
22/04/2023,04:32:54,0.002,0.0,0.0,0.0
22/04/2023,04:33:54,0.001,0.0,0.0,0.0
22/04/2023,04:34:54,0.001,0.0,0.0,0.0
22/04/2023,04:35:54,0.000,0.0,0.0,0.0
22/04/2023,04:36:54,0.001,0.0,0.0,0.0
22/04/2023,04:37:54,0.002,0.0,0.0,0.0
22/04/2023,04:38:54,0.001,0.0,0.0,0.0
22/04/2023,04:39:54,0.001,0.0,0.0,0.0
22/04/2023,04:40:54,0.002,0.0,0.0,0.0
22/04/2023,04:41:54,0.001,0.0,0.0,0.0
22/04/2023,04:42:54,0.001,0.0,0.0,0.0
22/04/2023,04:43:54,0.002,0.0,0.0,0.0
22/04/2023,04:44:54,0.002,0.0,0.0,0.0
22/04/2023,04:45:54,0.001,0.0,0.0,0.0
22/04/2023,04:46:54,0.002,0.0,0.0,0.0
22/04/2023,04:47:53,0.002,0.0,0.0,0.0
22/04/2023,04:48:54,0.003,0.0,0.0,0.0
22/04/2023,04:49:54,0.002,0.0,0.0,0.0
22/04/2023,04:50:54,0.002,0.0,0.0,0.0
22/04/2023,04:51:54,0.003,0.0,0.0,0.0
22/04/2023,04:52:54,0.003,0.0,0.0,0.0
22/04/2023,04:53:54,0.002,0.0,0.0,0.0
22/04/2023,04:54:54,0.003,0.0,0.0,0.0
22/04/2023,04:55:54,0.003,0.0,0.0,0.0
22/04/2023,04:56:54,0.003,0.0,0.0,0.0
22/04/2023,04:57:54,0.003,0.0,0.0,0.0
22/04/2023,04:58:54,0.004,0.0,0.0,0.0
22/04/2023,04:59:54,0.003,0.0,0.0,0.0
22/04/2023,05:00:54,0.003,0.0,0.0,0.0
22/04/2023,05:01:54,0.004,0.0,0.0,0.0
22/04/2023,05:02:54,0.004,0.0,0.0,0.0
22/04/2023,05:03:54,0.004,0.0,0.0,0.0
22/04/2023,05:04:54,0.004,0.0,0.0,0.0
22/04/2023,05:05:54,0.004,0.0,0.0,0.0
22/04/2023,05:06:54,0.006,0.0,0.0,0.0
22/04/2023,05:07:54,0.004,0.0,0.0,0.0
22/04/2023,05:08:54,0.005,0.0,0.0,0.0
22/04/2023,05:09:54,0.005,0.0,0.0,0.0
22/04/2023,05:10:54,0.005,0.0,0.0,0.0
22/04/2023,05:11:54,0.006,0.0,0.0,0.0
22/04/2023,05:12:54,0.006,0.0,0.0,0.0
22/04/2023,05:13:53,0.006,0.0,0.0,0.0
22/04/2023,05:14:54,0.007,0.0,0.0,0.0
22/04/2023,05:15:54,0.008,0.0,0.0,0.0
22/04/2023,05:16:54,0.007,0.0,0.0,0.0
22/04/2023,05:17:54,0.008,0.0,0.0,0.0
22/04/2023,05:18:54,0.008,0.0,0.001,0.001
22/04/2023,05:19:54,0.008,0.0,0.001,0.0
22/04/2023,05:20:54,0.008,0.0,0.001,0.0
22/04/2023,05:21:55,0.008,0.0,0.001,0.0
22/04/2023,05:22:55,0.009,0.0,0.001,0.0
22/04/2023,05:23:54,0.008,0.0,0.001,0.0
22/04/2023,05:24:54,0.008,0.0,0.001,0.0
22/04/2023,05:25:54,0.009,0.0,0.002,0.001
22/04/2023,05:26:54,0.010,0.0,0.002,0.0
22/04/2023,05:27:54,0.010,0.0,0.002,0.0
22/04/2023,05:28:54,0.011,0.0,0.002,0.0
22/04/2023,05:29:54,0.011,0.0,0.002,0.0
22/04/2023,05:30:54,0.012,0.0,0.002,0.0
22/04/2023,05:31:54,0.012,0.0,0.003,0.001
22/04/2023,05:32:54,0.012,0.0,0.003,0.0
22/04/2023,05:33:54,0.014,0.0,0.003,0.0
22/04/2023,05:34:54,0.013,0.0,0.003,0.0
22/04/2023,05:35:54,0.014,0.0,0.004,0.001
22/04/2023,05:36:54,0.014,0.0,0.004,0.0
22/04/2023,05:37:54,0.015,0.0,0.004,0.0
22/04/2023,05:38:54,0.015,0.0,0.004,0.0
22/04/2023,05:39:54,0.016,0.0,0.005,0.001
22/04/2023,05:40:54,0.017,0.0,0.005,0.0
22/04/2023,05:41:54,0.017,0.0,0.005,0.0
22/04/2023,05:42:54,0.018,0.0,0.005,0.0
22/04/2023,05:43:54,0.018,0.0,0.006,0.001
22/04/2023,05:44:54,0.018,0.0,0.006,0.0
22/04/2023,05:45:54,0.019,0.0,0.006,0.0
22/04/2023,05:46:54,0.019,0.0,0.007,0.001
22/04/2023,05:47:54,0.020,0.0,0.007,0.0
22/04/2023,05:48:54,0.021,0.0,0.007,0.0
22/04/2023,05:49:54,0.022,0.0,0.008,0.001
22/04/2023,05:50:54,0.023,0.0,0.008,0.0
22/04/2023,05:51:54,0.023,0.0,0.008,0.0
22/04/2023,05:52:54,0.024,0.0,0.009,0.001
22/04/2023,05:53:54,0.024,0.0,0.009,0.0
22/04/2023,05:54:54,0.025,0.0,0.01,0.001
22/04/2023,05:55:54,0.027,0.0,0.01,0.0
22/04/2023,05:56:54,0.025,0.0,0.01,0.0
22/04/2023,05:57:54,0.026,0.0,0.011,0.001
22/04/2023,05:58:54,0.026,0.0,0.011,0.0
22/04/2023,05:59:54,0.027,0.0,0.012,0.001
22/04/2023,06:00:54,0.028,0.0,0.012,0.0
22/04/2023,06:01:54,0.029,0.0,0.013,0.001
22/04/2023,06:02:54,0.029,0.0,0.013,0.0
22/04/2023,06:03:54,0.030,0.0,0.014,0.001
22/04/2023,06:04:54,0.031,0.0,0.014,0.0
22/04/2023,06:05:54,0.031,0.0,0.015,0.001
22/04/2023,06:06:54,0.032,0.0,0.015,0.0
22/04/2023,06:07:54,0.032,0.0,0.016,0.001
22/04/2023,06:08:54,0.033,0.0,0.016,0.0
22/04/2023,06:09:54,0.034,0.0,0.017,0.001
22/04/2023,06:10:54,0.034,0.0,0.017,0.0
22/04/2023,06:11:55,0.035,0.0,0.018,0.001
22/04/2023,06:12:55,0.036,0.0,0.019,0.001
22/04/2023,06:13:54,0.037,0.0,0.019,0.0
22/04/2023,06:14:54,0.039,0.0,0.02,0.001
22/04/2023,06:15:54,0.039,0.0,0.021,0.001
22/04/2023,06:16:54,0.040,0.0,0.021,0.0
22/04/2023,06:17:54,0.039,0.0,0.022,0.001
22/04/2023,06:18:54,0.041,0.0,0.022,0.0
22/04/2023,06:19:54,0.041,0.0,0.023,0.001
22/04/2023,06:20:54,0.041,0.0,0.024,0.001
22/04/2023,06:21:54,0.042,0.0,0.025,0.001
22/04/2023,06:22:54,0.043,0.0,0.025,0.0
22/04/2023,06:23:54,0.044,0.0,0.026,0.001
22/04/2023,06:24:55,0.045,0.0,0.027,0.001
22/04/2023,06:25:54,0.046,0.0,0.027,0.0
22/04/2023,06:26:54,0.046,0.0,0.028,0.001
22/04/2023,06:27:54,0.048,0.0,0.029,0.001
22/04/2023,06:28:54,0.052,0.0,0.03,0.001
22/04/2023,06:29:54,0.053,0.0,0.031,0.001
22/04/2023,06:30:54,0.054,0.0,0.032,0.001
22/04/2023,06:31:54,0.058,0.0,0.033,0.001
22/04/2023,06:32:54,0.058,0.0,0.034,0.001
22/04/2023,06:33:54,0.060,0.0,0.034,0.0
22/04/2023,06:34:54,0.058,0.0,0.035,0.001
22/04/2023,06:35:54,0.060,0.0,0.036,0.001
22/04/2023,06:36:54,0.062,0.0,0.037,0.001
22/04/2023,06:37:54,0.066,0.0,0.039,0.002
22/04/2023,06:38:54,0.067,0.0,0.04,0.001
22/04/2023,06:39:54,0.068,0.0,0.041,0.001
22/04/2023,06:40:54,0.069,0.0,0.042,0.001
22/04/2023,06:41:54,0.069,0.0,0.043,0.001
22/04/2023,06:42:54,0.073,0.0,0.044,0.001
22/04/2023,06:43:54,0.075,0.0,0.045,0.001
22/04/2023,06:44:54,0.076,0.0,0.047,0.002
22/04/2023,06:45:54,0.078,0.0,0.048,0.001
22/04/2023,06:46:54,0.082,0.0,0.049,0.001
22/04/2023,06:47:54,0.082,0.0,0.051,0.002
22/04/2023,06:48:54,0.083,0.0,0.052,0.001
22/04/2023,06:49:54,0.084,0.0,0.054,0.002
22/04/2023,06:50:54,0.085,0.0,0.055,0.001
22/04/2023,06:51:54,0.085,0.0,0.056,0.001
22/04/2023,06:52:54,0.088,0.0,0.058,0.002
22/04/2023,06:53:54,0.088,0.0,0.059,0.001
22/04/2023,06:54:55,0.089,0.0,0.061,0.002
22/04/2023,06:55:54,0.090,0.0,0.062,0.001
22/04/2023,06:56:54,0.090,0.0,0.064,0.002
22/04/2023,06:57:54,0.091,0.0,0.065,0.001
22/04/2023,06:58:54,0.093,0.0,0.067,0.002
22/04/2023,06:59:54,0.097,0.0,0.068,0.001
22/04/2023,07:00:54,0.100,0.0,0.07,0.002
22/04/2023,07:01:54,0.104,0.0,0.072,0.002
22/04/2023,07:02:55,0.108,0.0,0.074,0.002
22/04/2023,07:03:54,0.112,0.0,0.075,0.001
22/04/2023,07:04:54,0.116,0.0,0.077,0.002
22/04/2023,07:05:55,0.121,0.0,0.079,0.002
22/04/2023,07:06:54,0.124,0.0,0.081,0.002
22/04/2023,07:07:54,0.126,0.0,0.083,0.002
22/04/2023,07:08:54,0.129,0.0,0.085,0.002
22/04/2023,07:09:55,0.132,0.0,0.088,0.003
22/04/2023,07:10:55,0.133,0.0,0.09,0.002
22/04/2023,07:11:54,0.135,0.0,0.092,0.002
22/04/2023,07:12:54,0.137,0.0,0.094,0.002
22/04/2023,07:13:54,0.143,0.0,0.097,0.003
22/04/2023,07:14:54,0.147,0.0,0.099,0.002
22/04/2023,07:15:54,0.153,0.0,0.102,0.003
22/04/2023,07:16:54,0.160,0.0,0.104,0.002
22/04/2023,07:17:55,0.163,0.0,0.107,0.003
22/04/2023,07:18:54,0.168,0.0,0.11,0.003
22/04/2023,07:19:54,0.171,0.0,0.112,0.002
22/04/2023,07:20:54,0.177,0.0,0.115,0.003
22/04/2023,07:21:54,0.181,0.0,0.118,0.003
22/04/2023,07:22:54,0.184,0.0,0.121,0.003
22/04/2023,07:23:54,0.186,0.0,0.124,0.003
22/04/2023,07:24:53,0.189,0.0,0.127,0.003
22/04/2023,07:26:16,0.188,0.0,0.132,0.005
22/04/2023,07:27:54,0.189,0.0,0.137,0.005
22/04/2023,07:28:54,0.193,0.0,0.14,0.003
22/04/2023,07:29:54,0.193,0.0,0.143,0.003
22/04/2023,07:30:55,0.194,0.0,0.147,0.004
22/04/2023,07:31:54,0.194,0.0,0.15,0.003
22/04/2023,07:32:54,0.197,0.0,0.153,0.003
22/04/2023,07:33:54,0.198,0.0,0.156,0.003
22/04/2023,07:34:54,0.208,0.0,0.16,0.004
22/04/2023,07:35:54,0.217,0.0,0.163,0.003
22/04/2023,07:36:53,0.224,1.0,0.167,0.004
22/04/2023,07:37:54,0.235,1.0,0.171,0.004
22/04/2023,07:38:54,0.246,1.0,0.175,0.004
22/04/2023,07:39:55,0.253,1.0,0.179,0.004
22/04/2023,07:40:55,0.256,1.0,0.183,0.004
22/04/2023,07:41:54,0.261,1.0,0.188,0.005
22/04/2023,07:42:54,0.254,1.0,0.192,0.004
22/04/2023,07:43:55,0.256,1.0,0.196,0.004
22/04/2023,07:44:54,0.262,1.0,0.2,0.004
22/04/2023,07:45:54,0.277,1.0,0.205,0.005
22/04/2023,07:46:54,0.288,1.0,0.21,0.005
22/04/2023,07:47:54,0.295,1.0,0.215,0.005
22/04/2023,07:48:54,0.298,1.0,0.22,0.005
22/04/2023,07:49:54,0.298,1.0,0.224,0.004
22/04/2023,07:50:54,0.291,1.0,0.229,0.005
22/04/2023,07:51:54,0.300,1.0,0.234,0.005
22/04/2023,07:52:54,0.297,1.0,0.239,0.005
22/04/2023,07:53:54,0.303,1.0,0.244,0.005
22/04/2023,07:54:54,0.286,1.0,0.249,0.005
22/04/2023,07:55:54,0.283,1.0,0.254,0.005
22/04/2023,07:56:54,0.280,1.0,0.259,0.005
22/04/2023,07:57:54,0.272,1.0,0.263,0.004
22/04/2023,07:58:54,0.263,1.0,0.268,0.005
22/04/2023,07:59:54,0.253,1.0,0.272,0.004
22/04/2023,08:00:54,0.260,1.0,0.276,0.004
22/04/2023,08:01:54,0.263,1.0,0.28,0.004
22/04/2023,08:02:54,0.279,1.0,0.285,0.005
22/04/2023,08:03:54,0.284,1.0,0.29,0.005
22/04/2023,08:04:59,0.291,1.0,0.295,0.005
22/04/2023,08:05:55,0.307,1.0,0.299,0.004
22/04/2023,08:06:54,0.315,1.0,0.305,0.006
22/04/2023,08:07:54,0.336,1.0,0.31,0.005
22/04/2023,08:08:54,0.345,1.0,0.316,0.006
22/04/2023,08:09:54,0.361,1.0,0.322,0.006
22/04/2023,08:10:54,0.380,1.0,0.328,0.006
22/04/2023,08:11:54,0.387,1.0,0.334,0.006
22/04/2023,08:12:54,0.374,1.0,0.341,0.007
22/04/2023,08:13:55,0.363,1.0,0.347,0.006
22/04/2023,08:14:54,0.355,1.0,0.353,0.006
22/04/2023,08:15:54,0.350,1.0,0.359,0.006
22/04/2023,08:16:54,0.358,1.0,0.364,0.005
22/04/2023,08:17:54,0.356,1.0,0.37,0.006
22/04/2023,08:18:54,0.359,1.0,0.376,0.006
22/04/2023,08:19:54,0.368,1.0,0.382,0.006
22/04/2023,08:20:55,0.375,1.0,0.389,0.007
22/04/2023,08:21:54,0.384,1.0,0.395,0.006
22/04/2023,08:22:54,0.395,1.0,0.401,0.006
22/04/2023,08:23:54,0.407,1.0,0.408,0.007
22/04/2023,08:24:54,0.405,1.0,0.415,0.007
22/04/2023,08:25:54,0.408,1.0,0.422,0.007
22/04/2023,08:26:54,0.414,1.0,0.429,0.007
22/04/2023,08:27:55,0.416,1.0,0.435,0.006
22/04/2023,08:28:54,0.417,1.0,0.442,0.007
22/04/2023,08:29:54,0.417,1.0,0.449,0.007
22/04/2023,08:30:55,0.426,1.0,0.456,0.007
22/04/2023,08:31:56,0.424,1.0,0.464,0.008
22/04/2023,08:32:54,0.426,1.0,0.47,0.006
22/04/2023,08:33:54,0.429,1.0,0.478,0.008
22/04/2023,08:34:54,0.434,1.0,0.485,0.007
22/04/2023,08:35:54,0.439,1.0,0.492,0.007
22/04/2023,08:36:54,0.440,1.0,0.499,0.007
22/04/2023,08:37:54,0.445,1.0,0.507,0.008
22/04/2023,08:38:54,0.454,1.0,0.514,0.007
22/04/2023,08:39:55,0.453,1.0,0.522,0.008
22/04/2023,08:40:55,0.455,1.0,0.529,0.007
22/04/2023,08:41:55,0.462,1.0,0.537,0.008
22/04/2023,08:42:54,0.472,1.0,0.545,0.008
22/04/2023,08:43:54,0.479,1.0,0.553,0.008
22/04/2023,08:44:54,0.485,1.0,0.561,0.008
22/04/2023,08:45:55,0.488,1.0,0.569,0.008
22/04/2023,08:46:54,0.493,1.0,0.577,0.008
22/04/2023,08:47:54,0.497,1.0,0.585,0.008
22/04/2023,08:48:54,0.499,1.0,0.594,0.009
22/04/2023,08:49:54,0.505,1.0,0.602,0.008
22/04/2023,08:50:54,0.511,1.0,0.61,0.008
22/04/2023,08:51:54,0.527,1.0,0.619,0.009
22/04/2023,08:52:54,0.541,1.0,0.628,0.009
22/04/2023,08:53:54,0.517,1.0,0.637,0.009
22/04/2023,08:54:54,0.514,1.0,0.645,0.008
22/04/2023,08:55:54,0.515,1.0,0.654,0.009
22/04/2023,08:56:54,0.509,1.0,0.663,0.009
22/04/2023,08:57:55,0.513,1.0,0.671,0.008
22/04/2023,08:58:55,0.513,1.0,0.68,0.009
22/04/2023,08:59:55,0.526,1.0,0.688,0.008
22/04/2023,09:00:54,0.528,1.0,0.697,0.009
22/04/2023,09:01:55,0.535,1.0,0.706,0.009
22/04/2023,09:02:54,0.541,1.0,0.715,0.009
22/04/2023,09:03:55,0.542,1.0,0.724,0.009
22/04/2023,09:04:54,0.544,1.0,0.733,0.009
22/04/2023,09:05:54,0.554,1.0,0.742,0.009
22/04/2023,09:06:54,0.552,1.0,0.751,0.009
22/04/2023,09:07:54,0.543,1.0,0.76,0.009
22/04/2023,09:08:54,0.555,1.0,0.77,0.01
22/04/2023,09:09:54,0.573,1.0,0.779,0.009
22/04/2023,09:10:54,0.576,1.0,0.789,0.01
22/04/2023,09:11:55,0.559,1.0,0.798,0.009
22/04/2023,09:12:55,0.570,1.0,0.807,0.009
22/04/2023,09:13:54,0.584,1.0,0.817,0.01
22/04/2023,09:14:55,0.592,1.0,0.827,0.01
22/04/2023,09:15:54,0.608,1.0,0.837,0.01
22/04/2023,09:16:55,0.646,1.0,0.847,0.01
22/04/2023,09:17:55,0.677,2.0,0.858,0.011
22/04/2023,09:18:55,0.717,2.0,0.87,0.012
22/04/2023,09:19:54,0.725,2.0,0.882,0.012
22/04/2023,09:20:54,0.723,2.0,0.894,0.012
22/04/2023,09:21:54,0.708,2.0,0.906,0.012
22/04/2023,09:22:54,0.724,2.0,0.918,0.012
22/04/2023,09:23:55,0.727,2.0,0.93,0.012
22/04/2023,09:24:54,0.730,2.0,0.942,0.012
22/04/2023,09:25:55,0.694,2.0,0.954,0.012
22/04/2023,09:26:55,0.686,2.0,0.965,0.011
22/04/2023,09:27:54,0.667,2.0,0.977,0.012
22/04/2023,09:28:55,0.639,1.0,0.988,0.011
22/04/2023,09:29:55,0.622,1.0,0.998,0.01
22/04/2023,09:30:54,0.615,1.0,1.008,0.01
22/04/2023,09:31:54,0.609,1.0,1.019,0.011
22/04/2023,09:32:55,0.613,1.0,1.029,0.01
22/04/2023,09:33:55,0.625,1.0,1.039,0.01
22/04/2023,09:34:54,0.633,1.0,1.05,0.011
22/04/2023,09:35:55,0.638,1.0,1.06,0.01
22/04/2023,09:36:54,0.638,1.0,1.071,0.011
22/04/2023,09:37:54,0.658,2.0,1.081,0.01
22/04/2023,09:38:55,0.692,2.0,1.093,0.012
22/04/2023,09:39:55,0.722,2.0,1.105,0.012
22/04/2023,09:40:55,0.735,2.0,1.117,0.012
22/04/2023,09:41:55,0.736,2.0,1.129,0.012
22/04/2023,09:42:54,0.733,2.0,1.141,0.012
22/04/2023,09:43:54,0.779,2.0,1.154,0.013
22/04/2023,09:44:54,0.829,2.0,1.167,0.013
22/04/2023,09:45:54,0.829,2.0,1.181,0.014
22/04/2023,09:46:55,0.862,2.0,1.195,0.014
22/04/2023,09:47:55,0.888,2.0,1.209,0.014
22/04/2023,09:48:54,0.907,2.0,1.225,0.016
22/04/2023,09:49:54,0.896,2.0,1.24,0.015
22/04/2023,09:50:54,0.893,2.0,1.254,0.014
22/04/2023,09:51:54,0.903,2.0,1.269,0.015
22/04/2023,09:52:55,0.918,2.0,1.285,0.016
22/04/2023,09:53:55,0.925,2.0,1.3,0.015
22/04/2023,09:54:54,0.927,2.0,1.315,0.015
22/04/2023,09:55:54,0.937,2.0,1.331,0.016
22/04/2023,09:56:54,0.937,2.0,1.346,0.015
22/04/2023,09:57:54,0.961,2.0,1.362,0.016
22/04/2023,09:58:55,1.001,2.0,1.379,0.017
22/04/2023,09:59:54,1.042,2.0,1.396,0.017
22/04/2023,10:00:54,1.029,2.0,1.413,0.017
22/04/2023,10:01:54,1.025,2.0,1.43,0.017
22/04/2023,10:02:54,1.033,2.0,1.447,0.017